User: anonymous   Login
Location: Castelbiague
(43.0361°N, 0.9246°E)
Time: 10:59:20
(UTC+00:00)
Language:

Cosmos 1953 - Orbit

View from above orbital plane
View from above orbital plane
View from above satellite
View from above satellite

Ground track
Ground track

The orbit data is extracted from the following two-line orbital elements,

1 19210U 88050A   21259.46378249  .00001155  00000-0  76388-4 0  9994
2 19210  82.5174 327.0694 0013701   7.6073 352.5360 15.06371284790308
Epoch (UTC): 16 September 2021 11:07:50
Eccentricity: 0.0013701
inclination: 82.5174°
perigee height: 538 km
apogee height: 557 km
right ascension of ascending node: 327.0694°
argument of perigee: 7.6073°
revolutions per day: 15.06371284
mean anomaly at epoch: 352.5360°
orbit number at epoch: 79030

The dashed part of the orbit path shows where the satellite is in the earth's shadow,  

DLR